This is the latest recevied weather packets stored in our database for station/object KI8L. If no packets are shown the sender has not sent any weather packets the latest 10 day(s).
| Time | Temp. | Humidity | Pressure | Rain* | Wind** | Luminosity | Snow |
|---|---|---|---|---|---|---|---|
| 1777644315 | 6.67° C | 99% | 1014.3 hPa | 3.05 mm | - | 70 W/m² | - |
| 1777643708 | 6.11° C | 99% | 1014.5 hPa | 1.78 mm | - | 41 W/m² | - |
| 1777643406 | 6.67° C | 99% | 1014.5 hPa | 1.78 mm | - | 51 W/m² | - |
| 1777642799 | 6.67° C | 99% | 1014.4 hPa | 3.05 mm | - | 48 W/m² | - |
| 1777642495 | 6.11° C | 99% | 1014.6 hPa | 1.27 mm | - | 40 W/m² | - |
| 1777642191 | 6.11° C | 99% | 1014.7 hPa | 1.27 mm | - | 41 W/m² | - |
| 1777641889 | 6.11° C | 99% | 1014.8 hPa | 1.78 mm | - | 37 W/m² | - |
| 1777639471 | 6.11° C | 97% | 1014.5 hPa | 0 mm | - | 46 W/m² | - |
| 1777638863 | 6.11° C | 97% | 1014.3 hPa | 0 mm | - | 20 W/m² | - |
| 1777638559 | 6.11° C | 99% | 1014.3 hPa | 0 mm | - | 26 W/m² | - |
| 1777638255 | 6.11° C | 99% | 1014.3 hPa | 0 mm | - | 21 W/m² | - |
| 1777637951 | 6.11° C | 99% | 1014.4 hPa | 0 mm | - | 16 W/m² | - |
| 1777637345 | 6.11° C | 98% | 1014.7 hPa | 1.78 mm | - | 19 W/m² | - |
| 1777637042 | 6.11° C | 98% | 1014.7 hPa | 0 mm | - | 12 W/m² | - |
| 1777636738 | 6.11° C | 98% | 1014.7 hPa | 0 mm | - | 12 W/m² | - |
| 1777636434 | 6.11° C | 97% | 1014.9 hPa | 0 mm | - | 16 W/m² | - |
| 1777636130 | 6.11° C | 98% | 1014.8 hPa | 0 mm | - | 25 W/m² | - |
| 1777635522 | 6.11° C | 97% | 1014.8 hPa | 0 mm | - | 42 W/m² | - |
| 1777635218 | 6.11° C | 98% | 1014.5 hPa | 0 mm | - | 28 W/m² | - |
| 1777634915 | 6.11° C | 97% | 1014.6 hPa | 0 mm | - | 20 W/m² | - |
| 1777634612 | 5.56° C | 96% | 1014.8 hPa | 0 mm | - | 17 W/m² | - |
| 1777634310 | 5.56° C | 96% | 1014.6 hPa | 0 mm | - | 14 W/m² | - |
| 1777634006 | 5.56° C | 96% | 1014.9 hPa | 0 mm | - | 20 W/m² | - |
| 1777633702 | 6.11° C | 97% | 1014.8 hPa | 0 mm | - | 8 W/m² | - |
| 1777633401 | 6.11° C | 96% | 1014.9 hPa | 0 mm | - | 8 W/m² | - |
* Rain latest hour (hover to see other rain measurements)
** Current wind speed in m/s (hover to see current wind gust speed)